Home > Weather > Korbach > Past weeks

Flag for Germany Past Weather in Korbach, Hesse, Germany — Yesterday and Last 2 Weeks

Now
63 °F

Thundershowers. Passing clouds.


Feels Like: 63 °F
Forecast: 54 / 68 °F
Wind: 2 mph from Northwest

Location: Fritzlar Airport

Current Time: May 30, 2016 at 3:15:27 AM

Latest Report: May 30, 2016 at 2:20 AM


Visibility: 4 mi

Pressure: 29.62 "Hg

Humidity: 88%

Dew Point: 59 °F

Location of KorbachLocation

Past Weather in Korbach — Graph

°F

Korbach Temperature Yesterday

Maximum temperature yesterday: 73 °F (at 5:20 PM)
Minimum temperature yesterday: 57 °F (at 4:20 AM)
Average temperature yesterday: 65 °F

High & Low Weather Summary for the Past Weeks

 TemperatureHumidityPressure
High79 °F (May 22, 2:20 PM)100% (May 20, 1:00 AM)30.09 "Hg (May 20, 1:00 AM)
Low36 °F (May 16, 4:20 AM)41% (May 22, 7:20 PM)29.65 "Hg (May 30, 1:20 AM)
Average56 °F75%29.95 "Hg
* Reported May 15 1:20 AM — May 30 1:20 AM, Korbach, Weather by CustomWeather, © 2016

Note: Actual official high and low records may vary slightly from our data, if they occured in-between our weather recording intervals... More about our weather records

Advertising

Korbach Weather History for the Previous 24 Hours

Scroll right to see more
 ConditionsComfort  
Time TempWeatherWind HumidityBarometerVisibility
1:20 AM
Mon, May 30
63 °FPassing clouds.6 mph88%29.65 "Hg4 mi
12:20 AM64 °FThundershowers. Passing clouds.2 mph83%29.68 "Hg4 mi
11:20 PM
Sun, May 29
64 °FPartly cloudy.6 mph88%29.68 "Hg4 mi
10:20 PM66 °FCloudy.9 mph83%29.68 "Hg4 mi
9:20 PM68 °FBroken clouds.8 mph83%29.68 "HgN/A
8:20 PM72 °FScattered showers. Broken clouds.7 mph73%29.68 "HgN/A
7:20 PM72 °FBroken clouds.6 mph69%29.68 "HgN/A
6:20 PM73 °FBroken clouds.5 mph65%29.68 "HgN/A
5:20 PM73 °FBroken clouds.5 mph65%29.68 "HgN/A
4:20 PM72 °FBroken clouds.5 mph65%29.71 "HgN/A
3:20 PM72 °FBroken clouds.5 mph65%29.71 "HgN/A
2:20 PM70 °FBroken clouds.5 mph69%29.71 "HgN/A
1:20 PM68 °FBroken clouds.2 mph73%29.71 "HgN/A
12:20 PM66 °FBroken clouds.5 mph73%29.74 "HgN/A
11:20 AM64 °FBroken clouds.5 mph83%29.74 "HgN/A
10:20 AM63 °FPartly sunny.5 mph83%29.74 "Hg5 mi
9:20 AM63 °FPartly sunny.5 mph83%29.74 "Hg4 mi
8:20 AM61 °FPartly sunny.1 mph88%29.77 "Hg4 mi
7:20 AM59 °FFog.3 mph94%29.77 "Hg3 mi
6:20 AM57 °FFog.5 mph94%29.77 "Hg3 mi
5:20 AM57 °FFog.3 mph94%29.77 "Hg4 mi
4:20 AM57 °FPassing clouds.5 mph100%29.80 "Hg4 mi
3:20 AM59 °FPassing clouds.5 mph94%29.80 "HgN/A
Weather by CustomWeather, © 2016

See weather overviewHow to use our weather pages